Simultaneous Nadir Overpasses (SNOs) Predictions

Prediction of SNOs between AQUA and NOAA-19 Satellite Orbit:

Table of predicted SNOs for the next 14.0 days since TLE Epoch: 11/26/2011
Index Date Time (AQUA) AQUA Lat,Lon NOAA-19 Lat,Lon Distance(km) Time Diff (sec)
1 11/27/2011 09:46:25 50.75,-112.69 50.75,-112.68 0.81 6
2 11/29/2011 14:29:29 55.15, 178.33 55.15, 178.35 1.12 39
3 12/01/2011 18:26:54 -46.22, -64.32 -46.22, -64.32 0.23 21
4 12/03/2011 23:09:33 -52.01,-132.99 -52.02,-132.97 1.25 12
5 12/06/2011 03:52:52 -55.37, 157.59 -55.37, 157.58 1.21 47




NCC Satellite Simultaneous Nadir Overpasses (SNOs) Prediction Service
